User: anonymous   Login
Location: South Range
(44.4886°N, 65.7879°W)
Time: 16:57:30
(UTC-03:00)
Language:

Iridium 56 - Orbit

View from above orbital plane
View from above orbital plane
View from above satellite
View from above satellite

Ground track
Ground track

The orbit data is extracted from the following two-line orbital elements,

1 25170U 98010B   18174.50360633  .00000089  00000-0  24767-4 0  9997
2 25170  86.3970 195.3122 0002239  94.4924 265.6528 14.34217823 64987
Epoch (UTC): 23 June 2018 12:05:11
Eccentricity: 0.0002239
inclination: 86.3970°
perigee height: 776 km
apogee height: 779 km
right ascension of ascending node: 195.3122°
argument of perigee: 94.4924°
revolutions per day: 14.34217823
mean anomaly at epoch: 265.6528°
orbit number at epoch: 6498

The dashed part of the orbit path shows where the satellite is in the earth's shadow,  

DLR